,,,PA_Meas_PMT16A,,PR_Meas_QMR101_102,,RH_Meas_QMH101,,SR_Meas_QMS101,,TA_Meas_QMH101,,GenWind,,GenWind,
date,time,status,PA,status,PR,status,RH,status,SR,status,TA,status,DirAvg,status,SpdAvg,
2010-12-01, 00:00:04,VALID,1000.62,VALID,0,INVALID,163.609,VALID,0,VALID,24.93,VALID,32,VALID,0.335547,
2010-12-01, 00:01:04,VALID,1000.6,VALID,0,INVALID,163.647,VALID,0,VALID,24.9106,VALID,31,VALID,0.502734,
2010-12-01, 00:02:04,VALID,1000.59,VALID,0,INVALID,163.639,VALID,0,VALID,24.9514,VALID,31,VALID,0.24375,
2010-12-01, 00:03:04,VALID,1000.6,VALID,0,INVALID,163.624,VALID,0,VALID,24.93,VALID,31,VALID,0.3875,
2010-12-01, 00:04:04,VALID,1000.56,VALID,0,INVALID,163.647,VALID,0,VALID,24.93,VALID,31,VALID,0.517969,
2010-12-01, 00:05:04,VALID,1000.57,VALID,0,INVALID,163.609,VALID,0,VALID,24.93,VALID,31,VALID,0.327734,
2010-12-01, 00:06:04,VALID,1000.57,VALID,0,INVALID,163.632,VALID,0,VALID,24.93,VALID,31,VALID,0.366797,
2010-12-01, 00:07:04,VALID,1000.55,VALID,0,INVALID,163.617,VALID,0,VALID,24.8892,VALID,31,VALID,0.309375,
2010-12-01, 00:08:04,VALID,1000.54,VALID,0,INVALID,163.632,VALID,0,VALID,24.8911,VALID,31,VALID,0.297656,
2010-12-01, 00:09:04,VALID,1000.55,VALID,0,INVALID,163.624,VALID,0,VALID,24.9087,VALID,31,VALID,0.31875,
2010-12-01, 00:10:04,VALID,1000.54,VALID,0,INVALID,163.624,VALID,0,VALID,24.9106,VALID,31,VALID,0.497266,
2010-12-01, 00:11:04,VALID,1000.52,VALID,0,INVALID,163.647,VALID,0,VALID,24.8911,VALID,31,VALID,0.690234,
2010-12-01, 00:12:04,VALID,1000.51,VALID,0,INVALID,163.624,VALID,0,VALID,24.8716,VALID,31,VALID,0.601953,
2010-12-01, 00:13:04,VALID,1000.48,VALID,0,INVALID,163.662,VALID,0,VALID,24.8911,VALID,25,VALID,0.6125,
2010-12-01, 00:14:04,VALID,1000.46,VALID,0,INVALID,163.655,VALID,0,VALID,24.9106,VALID,17,VALID,0.694922,
2010-12-01, 00:15:04,VALID,1000.43,VALID,0,INVALID,163.624,VALID,0,VALID,24.9087,VALID,20,VALID,0.840625,
2010-12-01, 00:16:04,VALID,1000.4,VALID,0,INVALID,163.624,VALID,0,VALID,24.9671,VALID,20,VALID,0.842188,
2010-12-01, 00:17:04,VALID,1000.36,VALID,0,INVALID,163.647,VALID,0,VALID,25.0663,VALID,10,VALID,0.83125,
2010-12-01, 00:18:04,VALID,1000.33,VALID,0,INVALID,163.609,VALID,0,VALID,25.1618,VALID,24,VALID,1.03945,
2010-12-01, 00:19:04,VALID,1000.32,VALID,0,INVALID,163.617,VALID,0,VALID,25.3176,VALID,360,VALID,1.18242,
2010-12-01, 00:20:04,VALID,1000.32,VALID,0,INVALID,163.586,VALID,0,VALID,25.5532,VALID,12,VALID,1.27383,
2010-12-01, 00:21:04,VALID,1000.33,VALID,0,INVALID,163.556,VALID,0,VALID,25.748,VALID,22,VALID,0.836719,
2010-12-01, 00:22:04,VALID,1000.31,VALID,0,INVALID,163.54,VALID,0,VALID,25.8843,VALID,3,VALID,0.50625,
2010-12-01, 00:23:04,VALID,1000.28,VALID,0,INVALID,137.625,VALID,0,VALID,25.9427,VALID,18,VALID,0.646484,
2010-12-01, 00:24:04,VALID,1000.27,VALID,0,INVALID,128.814,VALID,0,VALID,25.9797,VALID,8,VALID,0.496094,
2010-12-01, 00:25:04,VALID,1000.26,VALID,0,INVALID,128.707,VALID,0,VALID,26.0206,VALID,20,VALID,0.429297,
2010-12-01, 00:26:04,VALID,1000.27,VALID,0,INVALID,125.739,VALID,0,VALID,25.9817,VALID,20,VALID,0.459375,
2010-12-01, 00:27:04,VALID,1000.25,VALID,0,INVALID,131.98,VALID,0,VALID,25.9622,VALID,20,VALID,0.420312,
2010-12-01, 00:28:04,VALID,1000.25,VALID,0,INVALID,138.975,VALID,0,VALID,25.9018,VALID,20,VALID,0.626953,
2010-12-01, 00:29:04,VALID,1000.21,VALID,0,INVALID,153.852,VALID,0,VALID,25.8434,VALID,20,VALID,0.203516,
2010-12-01, 00:30:04,VALID,1000.22,VALID,0,INVALID,160.107,VALID,0,VALID,25.8239,VALID,20,VALID,0.236328,
2010-12-01, 00:31:04,VALID,1000.21,VALID,0,INVALID,163.533,VALID,0,VALID,25.785,VALID,20,VALID,0.511328,
2010-12-01, 00:32:04,VALID,1000.2,VALID,0,INVALID,163.533,VALID,0,VALID,25.7869,VALID,45,VALID,0.451562,
2010-12-01, 00:33:04,VALID,1000.21,VALID,0,INVALID,163.563,VALID,0,VALID,25.7674,VALID,45,VALID,0.270703,
2010-12-01, 00:34:04,VALID,1000.16,VALID,0,INVALID,163.563,VALID,0,VALID,25.709,VALID,45,VALID,0.475781,
2010-12-01, 00:35:04,VALID,1000.14,VALID,0,INVALID,163.578,VALID,0,VALID,25.6097,VALID,45,VALID,0.197656,
2010-12-01, 00:36:04,VALID,1000.14,VALID,0,INVALID,163.586,VALID,0,VALID,25.5532,VALID,45,VALID,0.0886719,
2010-12-01, 00:37:04,VALID,1000.14,VALID,0,INVALID,163.586,VALID,0,VALID,25.5357,VALID,45,VALID,0.400391,
2010-12-01, 00:38:04,VALID,1000.08,VALID,0,INVALID,163.594,VALID,0,VALID,25.4753,VALID,44,VALID,0.421875,
2010-12-01, 00:39:04,VALID,1000.09,VALID,0,INVALID,163.578,VALID,0,VALID,25.4169,VALID,44,VALID,0.513281,
2010-12-01, 00:40:04,VALID,1000.07,VALID,0,INVALID,163.609,VALID,0,VALID,25.3779,VALID,44,VALID,0.272656,
2010-12-01, 00:41:04,VALID,1000.08,VALID,0,INVALID,163.586,VALID,0,VALID,25.339,VALID,46,VALID,0.602344,
2010-12-01, 00:42:04,VALID,1000.12,VALID,0,INVALID,163.594,VALID,0,VALID,25.2786,VALID,45,VALID,0.614453,
2010-12-01, 00:43:04,VALID,1000.14,VALID,0,INVALID,163.594,VALID,0,VALID,25.263,VALID,45,VALID,0.455078,
2010-12-01, 00:44:04,VALID,1000.15,VALID,0,INVALID,163.601,VALID,0,VALID,25.2027,VALID,45,VALID,0.393359,
2010-12-01, 00:45:04,VALID,1000.17,VALID,0,INVALID,163.617,VALID,0,VALID,25.2416,VALID,45,VALID,0.392188,
2010-12-01, 00:46:04,VALID,1000.18,VALID,0,INVALID,163.609,VALID,0,VALID,25.2221,VALID,45,VALID,0.326562,
2010-12-01, 00:47:04,VALID,1000.21,VALID,0,INVALID,163.617,VALID,0,VALID,25.2221,VALID,45,VALID,0.401953,
2010-12-01, 00:48:04,VALID,1000.21,VALID,0,INVALID,163.609,VALID,0,VALID,25.1832,VALID,46,VALID,0.392188,
2010-12-01, 00:49:04,VALID,1000.23,VALID,0,INVALID,163.624,VALID,0,VALID,25.1656,VALID,60,VALID,0.393359,
2010-12-01, 00:50:04,VALID,1000.22,VALID,0,INVALID,163.594,VALID,0,VALID,25.1248,VALID,60,VALID,0.455859,
2010-12-01, 00:51:04,VALID,1000.21,VALID,0,INVALID,163.594,VALID,0,VALID,25.0858,VALID,60,VALID,0.434375,
2010-12-01, 00:52:04,VALID,1000.21,VALID,0,INVALID,163.609,VALID,0,VALID,25.0663,VALID,60,VALID,0.348828,
2010-12-01, 00:53:04,VALID,1000.2,VALID,0,INVALID,163.601,VALID,0,VALID,25.0858,VALID,60,VALID,0.337109,
2010-12-01, 00:54:04,VALID,1000.2,VALID,0,INVALID,163.601,VALID,0,VALID,25.0858,VALID,60,VALID,0.441016,
2010-12-01, 00:55:04,VALID,1000.19,VALID,0,INVALID,163.609,VALID,0,VALID,25.0858,VALID,60,VALID,0.355469,
2010-12-01, 00:56:04,VALID,1000.19,VALID,0,INVALID,163.632,VALID,0,VALID,25.0839,VALID,60,VALID,0.269141,
2010-12-01, 00:57:04,VALID,1000.18,VALID,0,INVALID,163.617,VALID,0,VALID,25.1053,VALID,59,VALID,0.364844,
2010-12-01, 00:58:04,VALID,1000.19,VALID,0,INVALID,163.609,VALID,0,VALID,25.0858,VALID,37,VALID,0.700391,
2010-12-01, 00:59:04,VALID,1000.17,VALID,0,INVALID,163.601,VALID,0,VALID,25.0663,VALID,49,VALID,0.549609,
2010-12-01, 01:00:04,VALID,1000.12,VALID,0,INVALID,163.601,VALID,0,VALID,25.0469,VALID,17,VALID,0.644141,
2010-12-01, 01:01:04,VALID,1000.08,VALID,0,INVALID,163.639,VALID,0,VALID,25.0274,VALID,11,VALID,0.657422,
2010-12-01, 01:02:04,VALID,1000.06,VALID,0,INVALID,163.617,VALID,0,VALID,25.0079,VALID,6,VALID,0.796484,
2010-12-01, 01:03:04,VALID,1000.05,VALID,0,INVALID,163.624,VALID,0,VALID,25.0079,VALID,358,VALID,0.643359,
2010-12-01, 01:04:04,VALID,1000.02,VALID,0,INVALID,163.632,VALID,0,VALID,25.0255,VALID,355,VALID,0.592188,
2010-12-01, 01:05:04,VALID,1000.01,VALID,0,INVALID,163.617,VALID,0,VALID,25.0274,VALID,356,VALID,0.523047,
2010-12-01, 01:06:04,VALID,1000.01,VALID,0,INVALID,163.617,VALID,0,VALID,24.9904,VALID,356,VALID,0.264062,
2010-12-01, 01:07:04,VALID,999.993,VALID,0,INVALID,163.617,VALID,0,VALID,24.9087,VALID,356,VALID,0.258984,
2010-12-01, 01:08:04,VALID,999.982,VALID,0,INVALID,163.624,VALID,0,VALID,24.9106,VALID,356,VALID,0.179297,
2010-12-01, 01:09:04,VALID,1000.01,VALID,0,INVALID,163.609,VALID,0,VALID,24.8911,VALID,5,VALID,0.449219,
2010-12-01, 01:10:04,VALID,999.984,VALID,0,INVALID,163.624,VALID,0,VALID,24.8911,VALID,73,VALID,0.396484,
2010-12-01, 01:11:04,VALID,1000.01,VALID,0,INVALID,163.639,VALID,0,VALID,24.8716,VALID,73,VALID,0.355859,
2010-12-01, 01:12:04,VALID,999.992,VALID,0,INVALID,163.639,VALID,0,VALID,24.8308,VALID,73,VALID,0.513672,
2010-12-01, 01:13:04,VALID,999.988,VALID,0,INVALID,163.639,VALID,0,VALID,24.8132,VALID,73,VALID,0.397656,
2010-12-01, 01:14:04,VALID,999.984,VALID,0,INVALID,163.639,VALID,0,VALID,24.7937,VALID,73,VALID,0.334766,
2010-12-01, 01:15:04,VALID,1000.01,VALID,0,INVALID,163.655,VALID,0,VALID,24.7335,VALID,73,VALID,0.422266,
2010-12-01, 01:16:04,VALID,999.975,VALID,0,INVALID,163.655,VALID,0,VALID,24.7548,VALID,73,VALID,0.207813,
2010-12-01, 01:17:04,VALID,999.951,VALID,0,INVALID,163.617,VALID,0,VALID,24.7372,VALID,67,VALID,0.375781,
2010-12-01, 01:18:04,VALID,999.955,VALID,0,INVALID,163.655,VALID,0,VALID,24.6964,VALID,67,VALID,0.276563,
2010-12-01, 01:19:04,VALID,999.942,VALID,0,INVALID,163.647,VALID,0,VALID,24.6769,VALID,67,VALID,0.347656,
2010-12-01, 01:20:04,VALID,999.901,VALID,0,INVALID,163.655,VALID,0,VALID,24.638,VALID,65,VALID,0.450781,
2010-12-01, 01:21:04,VALID,999.916,VALID,0,INVALID,163.639,VALID,0,VALID,24.599,VALID,65,VALID,0.521484,
2010-12-01, 01:22:04,VALID,999.913,VALID,0,INVALID,163.639,VALID,0,VALID,24.5601,VALID,59,VALID,0.498047,
2010-12-01, 01:23:04,VALID,999.887,VALID,0,INVALID,163.662,VALID,0,VALID,24.5406,VALID,38,VALID,0.715234,
2010-12-01, 01:24:04,VALID,999.919,VALID,0,INVALID,163.655,VALID,0,VALID,24.5388,VALID,28,VALID,0.423828,
2010-12-01, 01:25:04,VALID,999.918,VALID,0,INVALID,163.639,VALID,0,VALID,24.5582,VALID,55,VALID,0.342187,
2010-12-01, 01:26:04,VALID,999.94,VALID,0,INVALID,163.639,VALID,0,VALID,24.5758,VALID,55,VALID,0.214844,
2010-12-01, 01:27:04,VALID,999.938,VALID,0,INVALID,163.678,VALID,0.100563,VALID,24.5972,VALID,75,VALID,0.621094,
2010-12-01, 01:28:04,VALID,999.934,VALID,0,INVALID,163.639,VALID,0,VALID,24.5972,VALID,46,VALID,0.595312,
2010-12-01, 01:29:04,VALID,999.955,VALID,0,INVALID,163.662,VALID,0,VALID,24.6166,VALID,48,VALID,0.341797,
2010-12-01, 01:30:04,VALID,999.949,VALID,0,INVALID,163.632,VALID,0,VALID,24.5972,VALID,48,VALID,0.425,
2010-12-01, 01:31:04,VALID,999.912,VALID,0,INVALID,163.647,VALID,0.100563,VALID,24.6185,VALID,66,VALID,0.269141,
2010-12-01, 01:32:04,VALID,999.895,VALID,0,INVALID,163.655,VALID,0,VALID,24.5777,VALID,66,VALID,0.311328,
2010-12-01, 01:33:04,VALID,999.912,VALID,0,INVALID,163.647,VALID,0,VALID,24.5582,VALID,66,VALID,0.220703,
2010-12-01, 01:34:04,VALID,999.89,VALID,0,INVALID,163.655,VALID,0.100563,VALID,24.5582,VALID,66,VALID,0.516016,
2010-12-01, 01:35:04,VALID,999.907,VALID,0,INVALID,163.655,VALID,0.100563,VALID,24.5193,VALID,66,VALID,0.179297,
2010-12-01, 01:36:04,VALID,999.908,VALID,0,INVALID,163.647,VALID,0.100563,VALID,24.5193,VALID,66,VALID,0.48125,
2010-12-01, 01:37:04,VALID,999.92,VALID,0,INVALID,163.67,VALID,0,VALID,24.5388,VALID,66,VALID,0.542188,
2010-12-01, 01:38:04,VALID,999.929,VALID,0,INVALID,163.655,VALID,0.100563,VALID,24.5388,VALID,68,VALID,0.508203,
2010-12-01, 01:39:04,VALID,999.895,VALID,0,INVALID,163.662,VALID,0,VALID,24.5601,VALID,68,VALID,0.394141,
2010-12-01, 01:40:04,VALID,999.902,VALID,0,INVALID,163.624,VALID,0,VALID,24.5601,VALID,67,VALID,0.457031,
2010-12-01, 01:41:04,VALID,999.886,VALID,0,INVALID,163.67,VALID,0,VALID,24.5796,VALID,43,VALID,0.605469,
2010-12-01, 01:42:04,VALID,999.899,VALID,0,INVALID,163.67,VALID,0,VALID,24.5601,VALID,43,VALID,0.405078,
2010-12-01, 01:43:04,VALID,999.844,VALID,0,INVALID,163.67,VALID,0,VALID,24.5582,VALID,43,VALID,0.352344,
2010-12-01, 01:44:04,VALID,999.825,VALID,0,INVALID,163.655,VALID,0,VALID,24.5388,VALID,43,VALID,0.188672,
2010-12-01, 01:45:04,VALID,999.802,VALID,0,INVALID,163.632,VALID,0,VALID,24.5796,VALID,43,VALID,0.196875,
2010-12-01, 01:46:04,VALID,999.779,VALID,0,INVALID,163.647,VALID,0,VALID,24.5582,VALID,43,VALID,0.257813,
2010-12-01, 01:47:04,VALID,999.761,VALID,0,INVALID,163.662,VALID,0,VALID,24.5796,VALID,44,VALID,0.412109,
2010-12-01, 01:48:04,VALID,999.759,VALID,0,INVALID,163.67,VALID,0,VALID,24.5796,VALID,45,VALID,0.467969,
2010-12-01, 01:49:04,VALID,999.729,VALID,0,INVALID,163.685,VALID,0,VALID,24.5796,VALID,51,VALID,0.391406,
2010-12-01, 01:50:04,VALID,999.708,VALID,0,INVALID,163.655,VALID,0,VALID,24.5796,VALID,51,VALID,0.425391,
2010-12-01, 01:51:04,VALID,999.69,VALID,0,INVALID,163.662,VALID,0,VALID,24.5796,VALID,51,VALID,0.185547,
2010-12-01, 01:52:04,VALID,999.675,VALID,0,INVALID,163.647,VALID,0,VALID,24.5601,VALID,51,VALID,0.378906,
2010-12-01, 01:53:04,VALID,999.617,VALID,0,INVALID,163.639,VALID,0,VALID,24.5406,VALID,51,VALID,0.317187,
2010-12-01, 01:54:04,VALID,999.599,VALID,0,INVALID,163.678,VALID,0,VALID,24.5212,VALID,65,VALID,0.294531,
2010-12-01, 01:55:04,VALID,999.557,VALID,0,INVALID,163.624,VALID,0,VALID,24.4822,VALID,65,VALID,0.405859,
2010-12-01, 01:56:04,VALID,999.547,VALID,0,INVALID,163.662,VALID,0,VALID,24.4414,VALID,65,VALID,0.41875,
2010-12-01, 01:57:04,VALID,999.504,VALID,0,INVALID,163.693,VALID,0,VALID,24.4433,VALID,73,VALID,0.684375,
2010-12-01, 01:58:04,VALID,999.515,VALID,0,INVALID,163.662,VALID,0,VALID,24.4433,VALID,73,VALID,0.426562,
2010-12-01, 01:59:04,VALID,999.508,VALID,0,INVALID,163.632,VALID,0,VALID,24.422,VALID,73,VALID,0.505859,
2010-12-01, 02:00:04,VALID,999.508,VALID,0,INVALID,163.655,VALID,0,VALID,24.422,VALID,73,VALID,0.522656,
2010-12-01, 02:01:04,VALID,999.502,VALID,0,INVALID,163.662,VALID,0,VALID,24.4433,VALID,73,VALID,0.35625,
2010-12-01, 02:02:04,VALID,999.503,VALID,0,INVALID,163.67,VALID,0,VALID,24.4628,VALID,73,VALID,0.383594,
2010-12-01, 02:03:04,VALID,999.493,VALID,0,INVALID,163.67,VALID,0,VALID,24.4433,VALID,73,VALID,0.493359,
2010-12-01, 02:04:04,VALID,999.511,VALID,0,INVALID,163.662,VALID,0,VALID,24.4451,VALID,48,VALID,0.63125,
2010-12-01, 02:05:04,VALID,999.479,VALID,0,INVALID,163.655,VALID,0,VALID,24.3849,VALID,48,VALID,0.476953,
2010-12-01, 02:06:04,VALID,999.487,VALID,0,INVALID,163.67,VALID,0,VALID,24.3654,VALID,48,VALID,0.503906,
2010-12-01, 02:07:04,VALID,999.474,VALID,0,INVALID,163.67,VALID,0,VALID,24.3246,VALID,48,VALID,0.208594,
2010-12-01, 02:08:04,VALID,999.434,VALID,0,INVALID,163.678,VALID,0,VALID,24.3265,VALID,48,VALID,0.490625,
2010-12-01, 02:09:04,VALID,999.419,VALID,0,INVALID,163.662,VALID,0,VALID,24.3265,VALID,48,VALID,0.308984,
2010-12-01, 02:10:04,VALID,999.389,VALID,0,INVALID,163.678,VALID,0,VALID,24.3265,VALID,35,VALID,0.514844,
2010-12-01, 02:11:04,VALID,999.394,VALID,0,INVALID,163.655,VALID,0,VALID,24.3265,VALID,35,VALID,0.594922,
2010-12-01, 02:12:04,VALID,999.349,VALID,0,INVALID,163.678,VALID,0,VALID,24.3052,VALID,35,VALID,0.539063,
2010-12-01, 02:13:04,VALID,999.337,VALID,0,INVALID,163.647,VALID,0,VALID,24.307,VALID,35,VALID,0.625,
2010-12-01, 02:14:04,VALID,999.33,VALID,0,INVALID,163.685,VALID,0,VALID,24.3265,VALID,32,VALID,0.348437,
2010-12-01, 02:15:04,VALID,999.324,VALID,0,INVALID,163.685,VALID,0,VALID,24.3265,VALID,32,VALID,0.308984,
2010-12-01, 02:16:04,VALID,999.342,VALID,0,INVALID,163.685,VALID,0,VALID,24.3052,VALID,32,VALID,0.317578,
2010-12-01, 02:17:04,VALID,999.334,VALID,0,INVALID,163.655,VALID,0,VALID,24.3265,VALID,33,VALID,0.3375,
2010-12-01, 02:18:04,VALID,999.323,VALID,0,INVALID,163.647,VALID,0,VALID,24.3052,VALID,64,VALID,0.4125,
2010-12-01, 02:19:05,VALID,999.315,VALID,0,INVALID,163.678,VALID,0,VALID,24.3459,VALID,64,VALID,0.398828,
2010-12-01, 02:20:05,VALID,999.294,VALID,0,INVALID,163.685,VALID,0,VALID,24.307,VALID,48,VALID,0.700781,
2010-12-01, 02:21:05,VALID,999.251,VALID,0,INVALID,163.67,VALID,0,VALID,24.2662,VALID,29,VALID,0.686328,
2010-12-01, 02:22:05,VALID,999.241,VALID,0,INVALID,163.67,VALID,0,VALID,24.2662,VALID,23,VALID,0.755078,
2010-12-01, 02:23:05,VALID,999.212,VALID,0,INVALID,163.67,VALID,0,VALID,24.2486,VALID,23,VALID,0.547266,
2010-12-01, 02:24:05,VALID,999.184,VALID,0,INVALID,163.678,VALID,0,VALID,24.2078,VALID,21,VALID,0.819531,
2010-12-01, 02:25:05,VALID,999.166,VALID,0,INVALID,163.708,VALID,0,VALID,24.2681,VALID,7,VALID,0.766016,
2010-12-01, 02:26:05,VALID,999.181,VALID,0,INVALID,163.678,VALID,0,VALID,24.2857,VALID,26,VALID,0.641406,
2010-12-01, 02:27:05,VALID,999.183,VALID,0,INVALID,163.67,VALID,0,VALID,24.3654,VALID,26,VALID,0.258594,
2010-12-01, 02:28:05,VALID,999.175,VALID,0,INVALID,163.678,VALID,0,VALID,24.3849,VALID,26,VALID,0.211719,
2010-12-01, 02:29:05,VALID,999.217,VALID,0,INVALID,163.655,VALID,0,VALID,24.3849,VALID,63,VALID,0.479688,
2010-12-01, 02:30:05,VALID,999.215,VALID,0,INVALID,163.67,VALID,0,VALID,24.3654,VALID,63,VALID,0.362109,
2010-12-01, 02:31:05,VALID,999.221,VALID,0,INVALID,163.67,VALID,0,VALID,24.3459,VALID,64,VALID,0.51875,
2010-12-01, 02:32:05,VALID,999.233,VALID,0,INVALID,163.662,VALID,0,VALID,24.3459,VALID,64,VALID,0.336328,
2010-12-01, 02:33:05,VALID,999.245,VALID,0,INVALID,163.685,VALID,0,VALID,24.3246,VALID,69,VALID,0.437891,
2010-12-01, 02:34:05,VALID,999.271,VALID,0,INVALID,163.693,VALID,0,VALID,24.3441,VALID,69,VALID,0.498437,
2010-12-01, 02:35:05,VALID,999.28,VALID,0,INVALID,163.67,VALID,0,VALID,24.3673,VALID,69,VALID,0.251953,
2010-12-01, 02:36:05,VALID,999.288,VALID,0,INVALID,163.67,VALID,0,VALID,24.3052,VALID,69,VALID,0.274219,
2010-12-01, 02:37:05,VALID,999.313,VALID,0,INVALID,163.678,VALID,0,VALID,24.3459,VALID,69,VALID,0.392969,
2010-12-01, 02:38:05,VALID,999.27,VALID,0,INVALID,163.67,VALID,0,VALID,24.3849,VALID,69,VALID,0.239844,
2010-12-01, 02:39:05,VALID,999.247,VALID,0,INVALID,163.655,VALID,0,VALID,24.383,VALID,69,VALID,0.417969,
2010-12-01, 02:40:05,VALID,999.248,VALID,0,INVALID,163.67,VALID,0,VALID,24.3246,VALID,48,VALID,0.521094,
2010-12-01, 02:41:05,VALID,999.243,VALID,0,INVALID,163.678,VALID,0,VALID,24.3265,VALID,48,VALID,0.514453,
2010-12-01, 02:42:05,VALID,999.231,VALID,0,INVALID,163.693,VALID,0,VALID,24.2662,VALID,48,VALID,0.644141,
2010-12-01, 02:43:05,VALID,999.213,VALID,0,INVALID,163.693,VALID,0,VALID,24.2273,VALID,29,VALID,0.775781,
2010-12-01, 02:44:05,VALID,999.203,VALID,0,INVALID,163.693,VALID,0,VALID,24.1884,VALID,29,VALID,0.466406,
2010-12-01, 02:45:05,VALID,999.191,VALID,0,INVALID,163.678,VALID,0,VALID,24.1494,VALID,29,VALID,0.553125,
2010-12-01, 02:46:05,VALID,999.185,VALID,0,INVALID,163.701,VALID,0,VALID,24.13,VALID,28,VALID,0.730469,
2010-12-01, 02:47:05,VALID,999.16,VALID,0,INVALID,163.701,VALID,0,VALID,24.13,VALID,28,VALID,0.464844,
2010-12-01, 02:48:05,VALID,999.153,VALID,0,INVALID,163.701,VALID,0,VALID,24.1123,VALID,28,VALID,0.385938,
2010-12-01, 02:49:05,VALID,999.192,VALID,0,INVALID,163.693,VALID,0,VALID,24.1123,VALID,28,VALID,0.208203,
2010-12-01, 02:50:05,VALID,999.177,VALID,0,INVALID,163.701,VALID,0,VALID,24.1123,VALID,28,VALID,0.242969,
2010-12-01, 02:51:05,VALID,999.202,VALID,0,INVALID,163.716,VALID,0,VALID,24.1123,VALID,51,VALID,0.416016,
2010-12-01, 02:52:05,VALID,999.195,VALID,0,INVALID,163.693,VALID,0,VALID,24.1105,VALID,66,VALID,0.350781,
2010-12-01, 02:53:05,VALID,999.245,VALID,0,INVALID,163.708,VALID,0,VALID,24.0716,VALID,66,VALID,0.467969,
2010-12-01, 02:54:05,VALID,999.239,VALID,0,INVALID,163.67,VALID,0,VALID,24.091,VALID,43,VALID,0.792969,
2010-12-01, 02:55:05,VALID,999.233,VALID,0,INVALID,163.693,VALID,0,VALID,24.1123,VALID,43,VALID,0.473437,
2010-12-01, 02:56:05,VALID,999.225,VALID,0,INVALID,163.708,VALID,0,VALID,24.0716,VALID,43,VALID,0.587891,
2010-12-01, 02:57:05,VALID,999.198,VALID,0,INVALID,163.716,VALID,0,VALID,24.0539,VALID,43,VALID,0.508984,
2010-12-01, 02:58:05,VALID,999.177,VALID,0,INVALID,163.685,VALID,0,VALID,24.0132,VALID,43,VALID,0.575781,
2010-12-01, 02:59:05,VALID,999.158,VALID,0,INVALID,163.701,VALID,0,VALID,24.0132,VALID,43,VALID,0.569141,
2010-12-01, 03:00:05,VALID,999.112,VALID,0,INVALID,163.685,VALID,0,VALID,23.9937,VALID,43,VALID,0.482812,
2010-12-01, 03:01:05,VALID,999.122,VALID,0,INVALID,163.701,VALID,0,VALID,23.9742,VALID,43,VALID,0.667969,
2010-12-01, 03:02:05,VALID,999.102,VALID,0,INVALID,163.701,VALID,0,VALID,23.9742,VALID,43,VALID,0.710938,
2010-12-01, 03:03:05,VALID,999.106,VALID,0,INVALID,163.708,VALID,0,VALID,23.9742,VALID,38,VALID,0.771094,
2010-12-01, 03:04:05,VALID,999.093,VALID,0,INVALID,163.716,VALID,0,VALID,24.0132,VALID,37,VALID,0.587891,
2010-12-01, 03:05:05,VALID,999.101,VALID,0,INVALID,163.685,VALID,0,VALID,24.0521,VALID,26,VALID,0.676953,
2010-12-01, 03:06:05,VALID,999.103,VALID,0,INVALID,163.685,VALID,0,VALID,24.0326,VALID,25,VALID,0.46875,
2010-12-01, 03:07:05,VALID,999.119,VALID,0,INVALID,163.693,VALID,0,VALID,24.0521,VALID,25,VALID,0.545313,
2010-12-01, 03:08:05,VALID,999.164,VALID,0,INVALID,163.67,VALID,0,VALID,24.0716,VALID,25,VALID,0.528125,
2010-12-01, 03:09:05,VALID,999.143,VALID,0,INVALID,163.701,VALID,0,VALID,24.091,VALID,25,VALID,0.485156,
2010-12-01, 03:10:05,VALID,999.12,VALID,0,INVALID,163.67,VALID,0,VALID,24.1689,VALID,25,VALID,0.562891,
2010-12-01, 03:11:05,VALID,999.163,VALID,0,INVALID,163.678,VALID,0,VALID,24.1865,VALID,25,VALID,0.310937,
2010-12-01, 03:12:05,VALID,999.126,VALID,0,INVALID,163.693,VALID,0,VALID,24.2468,VALID,26,VALID,0.3875,
2010-12-01, 03:13:05,VALID,999.141,VALID,0,INVALID,163.678,VALID,0,VALID,24.2273,VALID,26,VALID,0.207422,
2010-12-01, 03:14:05,VALID,999.14,VALID,0,INVALID,163.685,VALID,0,VALID,24.2273,VALID,26,VALID,0.341016,
2010-12-01, 03:15:05,VALID,999.15,VALID,0,INVALID,163.678,VALID,0,VALID,24.2255,VALID,26,VALID,0.341016,
2010-12-01, 03:16:05,VALID,999.171,VALID,0,INVALID,163.685,VALID,0.100563,VALID,24.2662,VALID,26,VALID,0.423438,
2010-12-01, 03:17:05,VALID,999.185,VALID,0,INVALID,163.678,VALID,0,VALID,24.2857,VALID,26,VALID,0.385547,
2010-12-01, 03:18:05,VALID,999.193,VALID,0,INVALID,163.67,VALID,0,VALID,24.2662,VALID,26,VALID,0.659766,
2010-12-01, 03:19:05,VALID,999.228,VALID,0,INVALID,163.647,VALID,0,VALID,24.2875,VALID,26,VALID,0.560156,
2010-12-01, 03:20:05,VALID,999.223,VALID,0,INVALID,163.708,VALID,0,VALID,24.2468,VALID,26,VALID,0.467187,
2010-12-01, 03:21:05,VALID,999.226,VALID,0,INVALID,163.67,VALID,0,VALID,24.2273,VALID,26,VALID,0.393359,
2010-12-01, 03:22:05,VALID,999.186,VALID,0,INVALID,163.678,VALID,0,VALID,24.2078,VALID,26,VALID,0.353516,
2010-12-01, 03:23:05,VALID,999.213,VALID,0,INVALID,163.678,VALID,0,VALID,24.2078,VALID,26,VALID,0.367969,
2010-12-01, 03:24:05,VALID,999.173,VALID,0,INVALID,163.678,VALID,0,VALID,24.2097,VALID,26,VALID,0.469922,
2010-12-01, 03:25:05,VALID,999.199,VALID,0,INVALID,163.662,VALID,0,VALID,24.1689,VALID,31,VALID,0.559766,
2010-12-01, 03:26:05,VALID,999.194,VALID,0,INVALID,163.685,VALID,0,VALID,24.13,VALID,31,VALID,0.557031,
2010-12-01, 03:27:05,VALID,999.192,VALID,0,INVALID,163.685,VALID,0,VALID,24.0929,VALID,28,VALID,0.768359,
2010-12-01, 03:28:05,VALID,999.204,VALID,0,INVALID,163.67,VALID,0,VALID,24.0716,VALID,24,VALID,0.539063,
2010-12-01, 03:29:05,VALID,999.209,VALID,0,INVALID,163.716,VALID,0,VALID,24.0326,VALID,14,VALID,0.592188,
2010-12-01, 03:30:05,VALID,999.235,VALID,0,INVALID,163.701,VALID,0,VALID,24.0521,VALID,39,VALID,0.347656,
2010-12-01, 03:31:05,VALID,999.244,VALID,0,INVALID,163.685,VALID,0,VALID,24.0326,VALID,39,VALID,0.257422,
2010-12-01, 03:32:05,VALID,999.224,VALID,0,INVALID,163.693,VALID,0,VALID,24.0539,VALID,39,VALID,0.339844,
2010-12-01, 03:33:05,VALID,999.247,VALID,0,INVALID,163.701,VALID,0,VALID,24.0132,VALID,39,VALID,0.285937,
2010-12-01, 03:34:05,VALID,999.275,VALID,0,INVALID,163.678,VALID,0,VALID,24.0734,VALID,39,VALID,0.321875,
2010-12-01, 03:35:05,VALID,999.26,VALID,0,INVALID,163.678,VALID,0,VALID,24.091,VALID,44,VALID,0.284375,
2010-12-01, 03:36:05,VALID,999.257,VALID,0,INVALID,163.678,VALID,0,VALID,24.1123,VALID,44,VALID,0.372266,
2010-12-01, 03:37:05,VALID,999.227,VALID,0,INVALID,163.678,VALID,0,VALID,24.0716,VALID,43,VALID,0.592969,
2010-12-01, 03:38:05,VALID,999.235,VALID,0,INVALID,163.701,VALID,0,VALID,24.0929,VALID,41,VALID,0.519141,
2010-12-01, 03:39:05,VALID,999.207,VALID,0,INVALID,163.685,VALID,0,VALID,24.0326,VALID,41,VALID,0.254687,
2010-12-01, 03:40:05,VALID,999.189,VALID,0,INVALID,163.693,VALID,0,VALID,24.0716,VALID,41,VALID,0.544141,
2010-12-01, 03:41:05,VALID,999.149,VALID,0,INVALID,163.685,VALID,0,VALID,24.1123,VALID,41,VALID,0.461719,